| time (UTC) | temp F | wind direction | speed knots | gust knots | rain 1hr in | rain 24hr in | rain mn in | humidity % | barometer mb |
| 20260510161543 | 55 | 34 | 2.6 | 13.0 | 0.00 | 0.00 | 0.00 | 59 | 1015.2 |
| 20260510160044 | 54 | 19 | 2.6 | 10.4 | 0.00 | 0.00 | 0.00 | 60 | 1015.5 |
| 20260510154535 | 54 | 60 | 3.5 | 12.2 | 0.00 | 0.00 | 0.00 | 60 | 1015.8 |
| 20260510153036 | 54 | 35 | 5.2 | 13.0 | 0.00 | 0.00 | 0.00 | 60 | 1016.0 |
| 20260510151530 | 54 | 62 | 4.3 | 11.3 | 0.00 | 0.00 | 0.00 | 60 | 1016.0 |
| 20260510150038 | 54 | 45 | 5.2 | 13.9 | 0.00 | 0.00 | 0.00 | 60 | 1016.2 |
| 20260510144522 | 54 | 348 | 5.2 | 13.9 | 0.00 | 0.00 | 0.00 | 60 | 1016.3 |
| 20260510143019 | 54 | 42 | 5.2 | 12.2 | 0.00 | 0.00 | 0.00 | 60 | 1016.4 |
| 20260510141522 | 55 | 312 | 3.5 | 11.3 | 0.00 | 0.00 | 0.00 | 60 | 1016.5 |
| 20260510140007 | 54 | 50 | 4.3 | 13.9 | 0.00 | 0.00 | 0.00 | 60 | 1016.5 |
| 20260510134607 | 54 | 19 | 4.3 | 13.0 | 0.00 | 0.00 | 0.00 | 60 | 1016.7 |
| 20260510133056 | 55 | 333 | 4.3 | 12.2 | 0.00 | 0.00 | 0.00 | 60 | 1016.5 |
| 20260510131552 | 54 | 348 | 3.5 | 11.3 | 0.00 | 0.00 | 0.00 | 60 | 1016.7 |
| 20260510130049 | 54 | 5 | 4.3 | 13.0 | 0.00 | 0.00 | 0.00 | 60 | 1016.9 |
| 20260510124554 | 55 | 78 | 6.1 | 9.6 | 0.00 | 0.00 | 0.00 | 58 | 1016.9 |
| 20260510123040 | 55 | 4 | 3.5 | 12.2 | 0.00 | 0.00 | 0.00 | 58 | 1017.1 |
| 20260510121535 | 55 | 54 | 5.2 | 11.3 | 0.00 | 0.00 | 0.00 | 58 | 1017.2 |
| 20260510120031 | 55 | 50 | 6.1 | 12.2 | 0.00 | 0.00 | 0.00 | 59 | 1017.3 |
| 20260510114534 | 56 | 109 | 2.6 | 16.5 | 0.00 | 0.00 | 0.00 | 60 | 1017.2 |
| 20260510113021 | 58 | 33 | 8.7 | 14.8 | 0.00 | 0.00 | 0.00 | 59 | 1017.4 |
| 20260510111517 | 58 | 25 | 7.8 | 15.6 | 0.00 | 0.00 | 0.00 | 59 | 1017.5 |
| 20260510110011 | 59 | 39 | 4.3 | 13.0 | 0.00 | 0.00 | 0.00 | 59 | 1017.6 |
| 20260510104518 | 58 | 37 | 5.2 | 18.2 | 0.00 | 0.00 | 0.00 | 59 | 1017.7 |
| 20260510103003 | 57 | 81 | 6.1 | 14.8 | 0.00 | 0.00 | 0.00 | 59 | 1017.7 |
| 20260510101609 | 56 | 12 | 5.2 | 12.2 | 0.00 | 0.00 | 0.00 | 58 | 1017.7 |
| 20260510100057 | 55 | 35 | 7.0 | 13.9 | 0.00 | 0.00 | 0.00 | 57 | 1017.6 |
| 20260510094552 | 54 | 321 | 7.0 | 14.8 | 0.00 | 0.00 | 0.00 | 59 | 1017.7 |
| 20260510093046 | 54 | 34 | 7.8 | 21.7 | 0.00 | 0.00 | 0.00 | 58 | 1017.8 |
| 20260510091541 | 54 | 52 | 6.1 | 17.4 | 0.00 | 0.00 | 0.00 | 55 | 1017.9 |
| 20260510090036 | 53 | 36 | 5.2 | 13.9 | 0.00 | 0.00 | 0.00 | 50 | 1018.1 |
| 20260510084532 | 53 | 63 | 7.8 | 16.5 | 0.00 | 0.00 | 0.00 | 46 | 1018.2 |
| 20260510083028 | 52 | 21 | 4.3 | 12.2 | 0.00 | 0.00 | 0.00 | 40 | 1018.3 |
| 20260510081534 | 52 | 33 | 6.1 | 11.3 | 0.00 | 0.00 | 0.00 | 38 | 1018.3 |
| 20260510080018 | 52 | 34 | 6.1 | 13.9 | 0.00 | 0.00 | 0.00 | 30 | 1018.3 |
| 20260510074513 | 52 | 59 | 4.3 | 14.8 | 0.00 | 0.00 | 0.00 | 23 | 1018.3 |
| 20260510073009 | 52 | 64 | 1.7 | 9.6 | 0.00 | 0.00 | 0.00 | 13 | 1018.3 |
| 20260510071506 | 52 | 39 | 5.2 | 10.4 | 0.00 | 0.00 | 0.00 | 8 | 1018.2 |
| 20260510070100 | 52 | 50 | 3.5 | 9.6 | 0.00 | 0.00 | 0.00 | 1 | 1018.2 |
| 20260510063016 | 51 | 27 | 1.7 | 12.2 | 0.00 | 0.00 | 0.00 | 1 | 1018.2 |
| 20260510061516 | 51 | 23 | 2.6 | 10.4 | 0.00 | 0.00 | 0.00 | 1 | 1018.1 |
| 20260510060006 | 50 | 341 | 4.3 | 9.6 | 0.00 | 0.00 | 0.00 | 1 | 1018.0 |
| 20260510054615 | 50 | 27 | 1.7 | 10.4 | 0.00 | 0.00 | 0.00 | 1 | 1017.9 |
| 20260510053055 | 50 | 51 | 2.6 | 7.8 | 0.00 | 0.00 | 0.00 | 1 | 1018.1 |
| 20260510051552 | 50 | 358 | 1.7 | 8.7 | 0.00 | 0.00 | 0.00 | 1 | 1018.1 |
| 20260510050052 | 50 | 8 | 0.9 | 8.7 | 0.00 | 0.00 | 0.00 | 1 | 1018.0 |
| 20260510044546 | 50 | 344 | 0.9 | 7.8 | 0.00 | 0.00 | 0.00 | 1 | 1018.0 |
| 20260510043038 | 50 | 62 | 0.9 | 7.0 | 0.00 | 0.00 | 0.00 | 1 | 1017.9 |
| 20260510041540 | 50 | 64 | 1.7 | 7.8 | 0.00 | 0.00 | 0.00 | 1 | 1017.9 |
| 20260510040028 | 50 | 327 | 1.7 | 7.0 | 0.00 | 0.00 | 0.00 | 1 | 1018.2 |
| 20260510034524 | 50 | 4 | 0.9 | 9.6 | 0.00 | 0.00 | 0.00 | 1 | 1018.3 |
| 20260510033020 | 50 | 21 | 1.7 | 6.1 | 0.00 | 0.00 | 0.00 | 1 | 1018.3 |
| 20260510031515 | 50 | 46 | 1.7 | 6.1 | 0.00 | 0.00 | 0.00 | 1 | 1018.4 |
| 20260510030014 | 51 | 52 | 0.0 | 6.1 | 0.00 | 0.00 | 0.00 | 1 | 1018.4 |
| 20260510024507 | 51 | 58 | 0.0 | 3.5 | 0.00 | 0.00 | 0.00 | 1 | 1018.4 |
| 20260510023005 | 51 | 8 | 0.9 | 5.2 | 0.00 | 0.00 | 0.00 | 1 | 1018.4 |
| 20260510021559 | 51 | 17 | 1.7 | 5.2 | 0.00 | 0.00 | 0.00 | 1 | 1018.4 |
| 20260510020054 | 51 | 52 | 1.7 | 7.0 | 0.00 | 0.00 | 0.00 | 1 | 1018.3 |
| 20260510014611 | 52 | 344 | 0.9 | 5.2 | 0.00 | 0.00 | 0.00 | 4 | 1018.4 |
| 20260510013059 | 52 | 5 | 0.9 | 4.3 | 0.00 | 0.00 | 0.00 | 11 | 1018.5 |
| 20260510011544 | 52 | 54 | 0.9 | 3.5 | 0.00 | 0.00 | 0.00 | 27 | 1018.5 |
| 20260510010039 | 51 | 21 | 0.9 | 5.2 | 0.00 | 0.00 | 0.00 | 39 | 1018.3 |
| 20260510004541 | 51 | 348 | 1.7 | 5.2 | 0.00 | 0.00 | 0.00 | 53 | 1018.4 |
| 20260510003032 | 51 | 29 | 1.7 | 7.0 | 0.00 | 0.00 | 0.00 | 61 | 1018.4 |
| 20260510001529 | 52 | 4 | 1.7 | 7.0 | 0.00 | 0.00 | 0.00 | 62 | 1018.5 |
| 20260510000026 | 52 | 29 | 1.7 | 7.8 | 0.00 | 0.00 | 0.00 | 61 | 1018.4 |
| 20260509234523 | 53 | 326 | 2.6 | 7.8 | 0.00 | 0.00 | 0.00 | 61 | 1018.3 |
| 20260509233020 | 53 | 36 | 3.5 | 7.8 | 0.00 | 0.00 | 0.00 | 60 | 1018.2 |
| 20260509231517 | 54 | 37 | 3.5 | 7.8 | 0.00 | 0.00 | 0.00 | 60 | 1018.2 |
| 20260509230015 | 54 | 353 | 1.7 | 7.8 | 0.00 | 0.00 | 0.00 | 59 | 1018.2 |
| 20260509224510 | 54 | 43 | 0.9 | 5.2 | 0.00 | 0.00 | 0.00 | 58 | 1018.1 |
| 20260509223006 | 55 | 11 | 1.7 | 4.3 | 0.00 | 0.00 | 0.00 | 57 | 1018.0 |
| 20260509221501 | 55 | 358 | 0.9 | 4.3 | 0.00 | 0.00 | 0.00 | 56 | 1018.0 |
| 20260509220058 | 55 | 77 | 1.7 | 5.2 | 0.00 | 0.00 | 0.00 | 56 | 1018.0 |
| 20260509214551 | 56 | 50 | 1.7 | 5.2 | 0.00 | 0.00 | 0.00 | 57 | 1018.1 |
| 20260509213048 | 57 | 83 | 0.9 | 2.6 | 0.00 | 0.00 | 0.00 | 56 | 1018.1 |
| 20260509211548 | 58 | 56 | 0.9 | 4.3 | 0.00 | 0.00 | 0.00 | 55 | 1017.8 |
| 20260509210050 | 58 | 61 | 0.9 | 5.2 | 0.00 | 0.00 | 0.00 | 54 | 1017.6 |
| 20260509204537 | 59 | 60 | 0.9 | 4.3 | 0.00 | 0.00 | 0.00 | 53 | 1017.6 |
| 20260509203036 | 59 | 46 | 0.9 | 5.2 | 0.00 | 0.00 | 0.00 | 52 | 1017.5 |
| 20260509201534 | 60 | 74 | 2.6 | 8.7 | 0.00 | 0.00 | 0.00 | 51 | 1017.4 |
| 20260509200032 | 61 | 95 | 1.7 | 6.1 | 0.00 | 0.00 | 0.00 | 51 | 1017.3 |
| 20260509194527 | 61 | 90 | 1.7 | 7.0 | 0.00 | 0.00 | 0.00 | 50 | 1017.1 |
| 20260509193021 | 62 | 55 | 1.7 | 6.1 | 0.00 | 0.00 | 0.00 | 49 | 1017.0 |
| 20260509191518 | 63 | 98 | 0.9 | 7.8 | 0.00 | 0.00 | 0.00 | 47 | 1016.9 |
| 20260509190011 | 64 | 125 | 3.5 | 7.0 | 0.00 | 0.00 | 0.00 | 46 | 1016.8 |
| 20260509184514 | 65 | 100 | 1.7 | 8.7 | 0.00 | 0.00 | 0.00 | 46 | 1016.8 |
| 20260509183003 | 66 | 75 | 2.6 | 10.4 | 0.00 | 0.00 | 0.00 | 45 | 1016.5 |
| 20260509181559 | 67 | 71 | 4.3 | 9.6 | 0.00 | 0.00 | 0.00 | 45 | 1016.4 |
| 20260509180054 | 67 | 51 | 2.6 | 8.7 | 0.00 | 0.00 | 0.00 | 45 | 1016.3 |
| 20260509174550 | 67 | 73 | 2.6 | 8.7 | 0.00 | 0.00 | 0.00 | 45 | 1016.1 |
| 20260509173113 | 68 | 56 | 4.3 | 9.6 | 0.00 | 0.00 | 0.00 | 44 | 1016.0 |
| 20260509171544 | 68 | 56 | 2.6 | 8.7 | 0.00 | 0.00 | 0.00 | 45 | 1016.0 |
| 20260509170040 | 68 | 97 | 4.3 | 10.4 | 0.00 | 0.00 | 0.00 | 43 | 1016.3 |
| 20260509164535 | 69 | 20 | 3.5 | 8.7 | 0.00 | 0.00 | 0.00 | 42 | 1016.3 |
| 20260509163031 | 70 | 29 | 2.6 | 12.2 | 0.00 | 0.00 | 0.00 | 42 | 1016.2 |